Flag for Germany Weather past 2 weeks in Tuttlingen, Baden-Württemberg, Germany

Now
38 °F

Passing clouds.


Feels Like: 38 °F
Forecast: 28 / 57 °F
Wind: 1 mph from East

Location: Konstanz


UV Index: 3 (Moderate)

Visibility: 16 mi


Pressure: 30.36 "Hg

Humidity: 75%

Dew point: 31 °F

Location of TuttlingenLocation

Historic Weather in Tuttlingen

°F

Tuttlingen temperature yesterday

Maximum temperature yesterday: 51 °F (at 2:00 PM)
Minimum temperature yesterday: 40 °F (at 8:00 AM)
Average temperature yesterday: 46 °F

Past Weeks' High & Low Weather Summary

 TemperatureHumidityPressure
High70 °F (Apr 2, 4:00 PM)98% (Apr 7, 8:00 AM)30.35 "Hg (Apr 7, 8:00 AM)
Low39 °F (Apr 16, 5:00 AM)28% (Apr 2, 6:00 PM)29.63 "Hg (Apr 3, 5:00 PM)
Average54 °F64%30.01 "Hg
* Reported Apr 1 5:00 AM — Apr 16 5:00 AM, Tuttlingen, Weather by CustomWeather, © 2014

Note: Actual official high and low records may vary slightly from our data, if they occured in-between our weather recording intervals... More about our weather records

Advertising

Historic Weather Conditions — Data for Previous 24 hours

 ConditionsComfort  
Time TempWeatherWind HumidityBarometerVisibility
5:00 AM
Apr 16
39 °FOvercast.1 mph68%30.35 "Hg22 mi
4:00 AM40 °FOvercast.2 mph61%30.34 "Hg31 mi
3:00 AM40 °FPassing clouds.2 mph60%30.34 "Hg31 mi
12:00 AM42 °FOvercast.2 mph50%30.33 "Hg43 mi
11:00 PM
Apr 15
42 °FOvercast.3 mph51%30.32 "Hg43 mi
10:00 PM43 °FOvercast.3 mph51%30.31 "Hg43 mi
9:00 PM44 °FOvercast.3 mph48%30.28 "Hg28 mi
8:00 PM47 °FPartly sunny.5 mph45%30.25 "Hg28 mi
7:00 PM48 °FScattered clouds.2 mph44%30.23 "Hg28 mi
6:00 PM51 °FScattered clouds.3 mph34%30.22 "Hg28 mi
5:00 PM49 °FScattered clouds.2 mph37%30.23 "Hg28 mi
4:00 PM51 °FScattered clouds.2 mph35%30.23 "Hg28 mi
3:00 PM49 °FScattered clouds.2 mph37%30.25 "Hg28 mi
2:00 PM51 °FScattered clouds.2 mph46%30.24 "Hg28 mi
1:00 PM46 °FScattered clouds.2 mph52%30.26 "Hg28 mi
12:00 PM44 °FScattered clouds.2 mph55%30.27 "Hg28 mi
11:00 AM45 °FScattered clouds.2 mph52%30.27 "Hg22 mi
10:00 AM42 °FScattered clouds.3 mph55%30.28 "Hg25 mi
9:00 AM42 °FScattered clouds.2 mph59%30.27 "Hg25 mi
8:00 AM40 °FScattered clouds.1 mph68%30.28 "Hg28 mi
Weather by CustomWeather, © 2014

See weather overview